Location: Assevillers
(49.8975°N, 2.8362°E)
Time: 21:33:14
(UTC+00:00)

Daily predictions for brighter satellites

Satellite Brightness Start Highest point End
(mag) Time Altitude Azimuth Time Altitude Azimuth Time Altitude Azimuth
Cosmos 2098 Rocket 3.4 16:19:17 10° S 16:23:34 57° E 16:28:37 10° NNE
USA 290 2.6 16:22:03 10° NNW 16:25:18 69° WSW 16:28:31 10° SSE
Cosmos 2208 Rocket 4.5 16:20:40 10° NNW 16:25:49 67° WSW 16:30:57 10° S
Cosmos 1782 2.5 16:22:57 10° S 16:26:31 72° E 16:30:07 10° NNE
Cosmos 1933 4.3 16:23:48 10° SE 16:26:56 25° E 16:30:06 10° NNE
Cosmos 2227 Rocket 2.3 16:23:44 10° NNW 16:29:18 56° NE 16:34:51 10° SE
Meteor 1-28 Rocket 3.5 16:26:49 10° NNE 16:30:00 38° E 16:33:08 10° S
Cosmos 2369 Rocket 4.2 16:28:26 10° W 16:32:25 19° NW 16:36:24 10° N
CBERS-1 4.0 16:27:40 10° SSE 16:32:45 74° ENE 16:37:52 10° NNW
CENTAUR R/B 3.5 16:35:07 10° W 16:40:53 41° NNW 16:48:03 10° NE
Cosmos 2180 Rocket 4.5 16:34:51 10° S 16:40:56 69° E 16:47:05 10° NNE
Cosmos 1697 Rocket 3.0 16:36:14 10° S 16:41:35 49° ESE 16:46:59 10° NE
Cosmos 1626 Rocket 4.3 16:38:43 10° NNW 16:42:57 55° W 16:47:08 10° S
Cosmos 2360 4.3 16:37:26 10° SSW 16:43:10 86° WNW 16:48:56 10° NNE
CZ-2D R/B 3.6 16:41:53 10° SE 16:44:36 27° ENE 16:47:21 10° N
Cosmos 1538 Rocket 4.5 16:40:22 10° NNW 16:45:20 39° ENE 16:50:19 10° SE
NOSS 2-3 (C) 4.5 16:42:44 10° S 16:45:28 22° ESE 16:47:48 13° ENE
Cosmos 2266 Rocket 3.9 16:42:38 10° N 16:48:48 73° ENE 16:54:51 10° SSE
Cosmos 1656 4.2 16:45:26 10° SW 16:51:01 60° WNW 16:56:40 10° NNE
Cosmos 2228 4.5 16:48:01 10° SW 16:51:57 37° WNW 16:55:55 10° N
Cosmos 1606 Rocket 3.9 16:48:37 10° SSE 16:52:49 45° E 16:57:05 10° NNE
Cosmos 1503 Rocket 4.0 16:49:53 10° SSW 16:55:06 83° ESE 17:00:20 10° NNE
Lacrosse 5 rocket 2.4 16:53:17 10° WNW 16:56:31 27° N 16:58:51 15° NE
UNK 3.8 16:54:24 10° NNE 16:58:55 56° E 17:03:23 10° S
CZ-4C R/B 3.5 16:52:16 10° NW 16:59:11 66° SW 17:07:43 10° SSE
Cosmos 1484 Rocket 3.6 16:56:27 10° S 16:59:53 49° W 17:03:17 10° NNW
Radarsat 4.5 16:55:46 10° SSE 17:00:55 72° ENE 17:06:06 10° N
Thor Agena Rocket 3.6 16:55:52 10° SSE 17:01:04 88° WSW 17:06:14 10° NNW
Cosmos 1743 3.7 16:58:09 10° NNW 17:01:15 41° W 17:04:18 10° SSW
Cosmos 1544 Rocket 4.5 16:57:59 10° SSW 17:02:16 51° WNW 17:06:37 10° N
IRS-P3 4.3 16:58:42 10° SE 17:03:47 49° ENE 17:08:53 10° N
NOSS 2-3 (D) 3.7 17:01:13 10° SSW 17:04:41 41° SE 17:07:02 19° ENE
NOSS 2-3 (E) 3.6 17:01:50 10° SSW 17:05:19 45° SE 17:07:43 19° ENE
Cosmos 1354 Rocket 4.0 17:00:53 10° SSW 17:06:07 74° ESE 17:11:23 10° NNE
IGS 5A 4.1 17:03:27 10° S 17:07:20 55° W 17:11:16 10° NNW
NOSS 2-2 (D) 4.5 17:05:19 10° W 17:07:57 24° NW 17:10:11 12° NNE
Cosmos 1777 Rocket 4.3 17:03:09 10° SSW 17:08:23 69° WNW 17:13:37 10° NNE
Cosmos 2151 3.7 17:05:16 10° NNW 17:09:21 55° W 17:13:25 10° S
Cosmos-2242 4.1 17:06:24 10° SE 17:09:46 23° E 17:11:23 19° NE
USA 238 DEB 4.0 17:04:23 10° S 17:10:04 43° ESE 17:14:48 17° NE
USA 238 4.0 17:04:30 10° S 17:10:11 42° ESE 17:14:54 17° ENE
MOS 1 Rocket 3.5 17:05:47 10° SSE 17:10:41 58° ENE 17:15:52 10° N
Cosmos 1898 Rocket 4.4 17:09:40 10° SSE 17:14:00 28° E 17:16:32 19° ENE
Gbstr 26 Del rocket 2.8 17:10:09 10° WSW 17:14:15 65° SSE 17:16:29 23° E
Cosmos 1726 Rocket 3.7 17:10:48 10° S 17:15:20 58° E 17:19:50 10° NNE
ERS-1 4.4 17:11:49 10° SSE 17:16:47 69° ENE 17:21:43 10° N
USA 215 3.7 17:12:07 16° ENE 17:17:06 49° N 17:23:20 10° WNW
Cosmos 2082 4.0 17:12:18 10° NNW 17:17:48 46° NE 17:23:17 10° SE
AQUARIUS 4.0 17:13:54 10° SSE 17:18:16 66° ENE 17:22:39 10° N
SMAP 3.3 17:14:57 10° S 17:19:36 73° WSW 17:24:17 10° NNW
Cosmos 1805 3.7 17:17:25 10° N 17:20:24 28° ENE 17:23:22 10° SE
Cosmos 2297 Rocket 4.2 17:16:27 10° NW 17:21:23 31° WSW 17:26:17 10° SSW
GEOS 3 Rocket 3.7 17:19:09 18° NE 17:23:15 65° SE 17:28:35 10° SSW
Landsat 7 3.8 17:19:04 10° SSE 17:23:43 84° WSW 17:28:24 10° NNW
YAOGAN 1 3.1 17:22:44 10° SE 17:26:32 33° ENE 17:30:22 10° N
Cosmos 923 Rocket 4.4 17:21:59 10° NNW 17:26:52 39° ENE 17:31:41 10° SE
Cosmos 1937 Rocket 4.3 17:25:12 10° SSE 17:29:33 28° E 17:30:51 25° ENE
SL-16 R/B 4.1 17:28:42 10° SE 17:29:26 12° ESE 17:29:26 12° ESE
Cosmos 990 Rocket 4.0 17:28:23 10° SSW 17:33:31 80° WNW 17:38:14 13° NNE
Cosmos 1461 3.9 17:30:17 10° WSW 17:33:56 36° NW 17:36:23 18° NNE
CZ-2D R/B 3.7 17:30:37 10° SE 17:34:35 44° ENE 17:38:31 10° N
SL-16 R/B 3.4 17:28:55 10° N 17:34:54 50° WNW 17:40:49 10° SW
SKYMED 2 3.9 17:35:14 26° NE 17:37:10 42° E 17:41:17 10° S
COSMOS 2455 4.0 17:33:35 10° SSE 17:38:08 23° ESE 17:38:36 23° E
Meteor 2-2 Rocket 4.5 17:33:14 10° SSE 17:38:32 45° E 17:42:46 16° NNE
Okean 1 3.9 17:35:43 10° SSE 17:38:21 31° ESE 17:38:21 31° ESE
Cosmos 1844 Rocket 3.4 17:39:42 10° NNW 17:44:47 33° NE 17:45:49 30° ENE
SJ-6F 4.4 17:40:59 10° S 17:44:58 78° WSW 17:49:01 10° NNW
Cosmos 2219 3.1 17:39:17 10° NNW 17:45:03 81° ENE 17:50:49 10° SSE
Cosmos 1980 Rocket 2.1 17:40:17 10° SSW 17:45:54 70° ESE 17:49:21 24° NE
Cosmos 1953 Rocket 3.7 17:42:50 10° NNW 17:47:17 75° W 17:51:44 10° S
Aureole 1 Rocket 3.4 17:43:14 10° SSW 17:47:51 71° ESE 17:51:47 21° NNE
Meteor 1-26 Rocket 4.2 17:43:53 10° S 17:49:07 54° E 17:52:48 19° NNE
PSLV R/B 3.6 17:49:59 41° E 17:50:41 46° ENE 17:54:36 10° N
ARIANE 5 R/B 3.4 17:47:50 10° S 17:52:46 51° W 17:57:48 10° NNW
Cosmos 2263 Rocket 2.6 17:47:34 10° NNW 17:53:11 65° WSW 17:58:48 10° SSE
SL-19 R/B 4.2 17:48:18 10° SE 17:53:37 58° ENE 17:59:17 10° N
BREEZE-M DEB (TANK) 3.7 17:54:18 10° SW 17:57:14 25° SSE 17:57:14 25° SSE
COSMO-SKYMED 1 2.9 17:59:08 41° SE 17:59:08 41° SE 18:02:27 10° S
Cosmos 1680 Rocket 3.6 17:53:31 10° NNW 17:58:37 50° ENE 18:00:24 35° ESE
BREEZE-M DEB (TANK) 4.0 17:55:51 10° W 17:59:29 74° SSW 18:06:53 20° ESE
NOSS 3-2 (C) 4.0 17:54:35 10° WSW 17:59:41 45° NNW 18:03:20 22° NNE
NOAA 15 4.5 17:55:41 10° SSE 18:00:58 77° ENE 18:06:16 10° NNW
Cosmos 1076 Rocket 4.5 17:57:43 10° NNW 18:01:53 48° W 18:06:01 10° SSW
Meteor 2-10 4.2 17:56:45 10° NNW 18:02:09 78° W 18:07:43 10° S
NOAA 6 4.0 17:57:59 10° SE 18:02:57 55° ENE 18:07:55 10° N
Cosmos 2369 3.8 17:58:00 10° S 18:03:35 56° ESE 18:05:20 40° ENE
Resurs 01 Rocket 4.0 18:11:53 11° N 18:11:53 11° N 18:11:59 10° N
USA 81 4.3 18:06:02 10° N 18:11:17 72° W 18:16:31 10° S
Cosmos 44 Rocket 3.6 18:06:52 10° NNW 18:11:50 48° NE 18:11:53 48° NE
Cosmos 2227 Rocket 4.2 18:08:16 10° NW 18:13:01 28° WSW 18:17:44 10° SSW
SPOT 1/Viking Rocket 4.0 18:11:39 10° S 18:16:48 64° WSW 18:22:00 10° NNW
Cosmos 2058 Rocket 3.5 18:19:43 10° SSW 18:24:09 61° WNW 18:26:26 27° N
Cosmos 1697 Rocket 4.0 18:20:35 10° WSW 18:25:43 35° NW 18:29:16 18° N
OceanSat 1 rocket 4.5 18:21:39 10° SSE 18:26:24 89° W 18:31:08 10° NNW
USA 281 4.5 18:28:12 23° NNE 18:28:12 23° NNE 18:31:54 10° N
Cosmos 2333 Rocket 4.2 18:28:31 10° SSE 18:29:34 15° SSE 18:29:34 15° SSE
CENTAUR R/B 4.1 18:27:34 10° WNW 18:33:32 29° N 18:35:36 26° NNE
Lacrosse 5 rocket 3.1 18:30:51 10° NW 18:32:26 21° NW 18:32:26 21° NW
Meteor 2-11 Rocket 4.4 18:28:03 10° N 18:34:15 89° W 18:40:24 10° S
Cosmos 2278 Rocket 4.4 18:32:14 10° N 18:32:43 11° N 18:32:43 11° N
NOSS 2-3 (C) 4.4 18:32:07 10° WSW 18:34:53 36° WNW 18:34:53 36° WNW
Meteor 1-14 Rocket 4.1 18:32:40 10° N 18:38:29 78° ENE 18:39:10 67° SE
Cosmos-2242 4.3 18:42:37 10° SW 18:46:36 38° WNW 18:47:46 32° NW
Cosmos 1898 Rocket 4.3 18:50:47 10° SW 18:55:45 48° WNW 18:56:44 42° NNW
Cosmos 1844 4.0 18:50:15 10° NNW 18:54:37 55° NNW 18:54:37 55° NNW
USA 215 3.4 18:59:28 56° NNE 18:59:34 57° NNE 19:05:57 10° WNW
Cosmos 2112 Rocket 4.3 18:55:08 10° NNW 18:59:47 62° WNW 18:59:47 62° WNW
USA 238 DEB 4.0 18:54:43 10° WSW 19:00:51 55° NW 19:02:15 47° N
USA 238 4.0 18:54:49 10° WSW 19:00:57 55° NW 19:02:21 47° N
YAOGAN 1 4.4 18:58:40 10° SSW 19:02:24 29° W 19:06:10 10° NNW
BREEZE-M DEB (TANK) 4.1 19:01:43 10° SW 19:06:16 40° SSW 19:06:16 40° SSW
Cosmos 1937 Rocket 4.3 19:06:13 10° SW 19:10:58 47° WNW 19:10:58 47° WNW
SL-16 R/B 3.6 19:08:48 10° SSW 19:11:20 28° SSW 19:11:20 28° SSW
Cosmos 1745 Rocket 4.3 19:10:10 10° NNW 19:16:15 63° W 19:22:17 10° S
COSMOS 2455 3.5 19:17:23 10° SW 19:21:46 50° SW 19:21:46 50° SW
Cosmos 1844 Rocket 3.7 19:23:26 10° NW 19:27:31 43° WNW 19:27:31 43° WNW
Cosmos 1980 Rocket 3.8 19:25:37 10° WSW 19:30:23 27° NW 19:31:07 27° NNW
CENTAUR R/B 4.4 20:19:04 10° NW 20:22:41 28° NNW 20:22:41 28° NNW
